Year,Month,Day,Hour,Minute,Value (Times are PST for temperature in C)
2018,08,08,00,00,19.50
2018,08,08,00,01,19.50
2018,08,08,00,02,19.40
2018,08,08,00,03,19.40
2018,08,08,00,04,19.40
2018,08,08,00,05,19.40
2018,08,08,00,06,19.40
2018,08,08,00,07,19.30
2018,08,08,00,08,19.30
2018,08,08,00,09,19.30
2018,08,08,00,10,19.30
2018,08,08,00,11,19.30
2018,08,08,00,12,19.30
2018,08,08,00,13,19.30
2018,08,08,00,14,19.30
2018,08,08,00,15,19.30
2018,08,08,00,16,19.30
2018,08,08,00,17,19.30
2018,08,08,00,18,19.30
2018,08,08,00,19,19.30
2018,08,08,00,20,19.30
2018,08,08,00,21,19.30
2018,08,08,00,22,19.30
2018,08,08,00,23,19.30
2018,08,08,00,24,19.30
2018,08,08,00,25,19.30
2018,08,08,00,26,19.30
2018,08,08,00,27,19.30
2018,08,08,00,28,19.30
2018,08,08,00,29,19.30
2018,08,08,00,30,19.30
2018,08,08,00,31,19.30
2018,08,08,00,32,19.30
2018,08,08,00,33,19.20
2018,08,08,00,34,19.20
2018,08,08,00,35,19.20
2018,08,08,00,36,19.20
2018,08,08,00,37,19.20
2018,08,08,00,38,19.20
2018,08,08,00,39,19.20
2018,08,08,00,40,19.20
2018,08,08,00,41,19.20
2018,08,08,00,42,19.20
2018,08,08,00,43,19.10
2018,08,08,00,44,19.10
2018,08,08,00,45,19.10
2018,08,08,00,46,19.10
2018,08,08,00,47,19.10
2018,08,08,00,48,19.10
2018,08,08,00,49,19.10
2018,08,08,00,50,18.90
2018,08,08,00,51,18.90
2018,08,08,00,52,18.90
2018,08,08,00,53,18.90
2018,08,08,00,54,18.90
2018,08,08,00,55,18.80
2018,08,08,00,56,18.80
2018,08,08,00,57,18.80
2018,08,08,00,58,18.70
2018,08,08,00,59,18.70
2018,08,08,01,00,18.70
2018,08,08,01,01,18.70
2018,08,08,01,02,18.70
2018,08,08,01,03,18.60
2018,08,08,01,04,18.60
2018,08,08,01,05,18.60
2018,08,08,01,06,18.60
2018,08,08,01,07,18.60
2018,08,08,01,08,18.60
2018,08,08,01,09,18.50
2018,08,08,01,10,18.50
2018,08,08,01,11,18.50
2018,08,08,01,12,18.50
2018,08,08,01,13,18.50
2018,08,08,01,14,18.50
2018,08,08,01,15,18.40
2018,08,08,01,16,18.40
2018,08,08,01,17,18.40
2018,08,08,01,18,18.40
2018,08,08,01,19,18.30
2018,08,08,01,20,18.30
2018,08,08,01,21,18.30
2018,08,08,01,22,18.30
2018,08,08,01,23,18.20
2018,08,08,01,24,18.20
2018,08,08,01,25,18.20
2018,08,08,01,26,18.20
2018,08,08,01,27,18.20
2018,08,08,01,28,18.20
2018,08,08,01,29,18.20
2018,08,08,01,30,18.20
2018,08,08,01,31,18.20
2018,08,08,01,32,18.20
2018,08,08,01,33,18.20
2018,08,08,01,34,18.20
2018,08,08,01,35,18.20
2018,08,08,01,36,18.20
2018,08,08,01,37,18.20
2018,08,08,01,38,18.20
2018,08,08,01,39,18.20
2018,08,08,01,40,18.20
2018,08,08,01,41,18.20
2018,08,08,01,42,18.20
2018,08,08,01,43,18.20
2018,08,08,01,44,18.20
2018,08,08,01,45,18.20
2018,08,08,01,46,18.20
2018,08,08,01,47,18.20
2018,08,08,01,48,18.20
2018,08,08,01,49,18.20
2018,08,08,01,50,18.20
2018,08,08,01,51,18.20
2018,08,08,01,52,18.10
2018,08,08,01,53,18.10
2018,08,08,01,54,18.10
2018,08,08,01,55,18.10
2018,08,08,01,56,18.10
2018,08,08,01,57,18.10
2018,08,08,01,58,18.10
2018,08,08,01,59,18.10
2018,08,08,02,00,18.10
2018,08,08,02,01,18.00
2018,08,08,02,02,17.90
2018,08,08,02,03,17.90
2018,08,08,02,04,17.90
2018,08,08,02,05,17.90
2018,08,08,02,06,17.90
2018,08,08,02,07,17.90
2018,08,08,02,08,17.90
2018,08,08,02,09,17.90
2018,08,08,02,10,17.90
2018,08,08,02,11,17.70
2018,08,08,02,12,17.60
2018,08,08,02,13,17.40
2018,08,08,02,14,17.30
2018,08,08,02,15,17.10
2018,08,08,02,16,16.90
2018,08,08,02,17,16.80
2018,08,08,02,18,16.70
2018,08,08,02,19,16.50
2018,08,08,02,20,16.40
2018,08,08,02,21,16.30
2018,08,08,02,22,16.30
2018,08,08,02,23,16.20
2018,08,08,02,24,16.10
2018,08,08,02,25,16.00
2018,08,08,02,26,15.90
2018,08,08,02,27,15.90
2018,08,08,02,28,15.80
2018,08,08,02,29,15.80
2018,08,08,02,30,15.80
2018,08,08,02,31,15.80
2018,08,08,02,32,15.80
2018,08,08,02,33,15.80
2018,08,08,02,34,15.80
2018,08,08,02,35,15.80
2018,08,08,02,36,15.80
2018,08,08,02,37,15.80
2018,08,08,02,38,15.80
2018,08,08,02,39,15.80
2018,08,08,02,40,15.80
2018,08,08,02,41,15.80
2018,08,08,02,42,15.80
2018,08,08,02,43,15.80
2018,08,08,02,44,15.80
2018,08,08,02,45,15.80
2018,08,08,02,46,15.80
2018,08,08,02,47,15.80
2018,08,08,02,48,15.80
2018,08,08,02,49,15.80
2018,08,08,02,50,15.80
2018,08,08,02,51,15.80
2018,08,08,02,52,15.80
2018,08,08,02,53,15.80
2018,08,08,02,54,15.80
2018,08,08,02,55,15.80
2018,08,08,02,56,15.70
2018,08,08,02,57,15.70
2018,08,08,02,58,15.70
2018,08,08,02,59,15.70
2018,08,08,03,00,15.70
2018,08,08,03,01,15.70
2018,08,08,03,02,15.70
2018,08,08,03,03,15.70
2018,08,08,03,04,15.70
2018,08,08,03,05,15.70
2018,08,08,03,06,15.70
2018,08,08,03,07,15.70
2018,08,08,03,08,15.70
2018,08,08,03,09,15.70
2018,08,08,03,10,15.70
2018,08,08,03,11,15.60
2018,08,08,03,12,15.60
2018,08,08,03,13,15.60
2018,08,08,03,14,15.60
2018,08,08,03,15,15.60
2018,08,08,03,16,15.60
2018,08,08,03,17,15.60
2018,08,08,03,18,15.60
2018,08,08,03,19,15.60
2018,08,08,03,20,15.60
2018,08,08,03,21,15.60
2018,08,08,03,22,15.60
2018,08,08,03,23,15.70
2018,08,08,03,24,15.70
2018,08,08,03,25,15.70
2018,08,08,03,26,15.80
2018,08,08,03,27,15.80
2018,08,08,03,28,15.80
2018,08,08,03,29,15.80
2018,08,08,03,30,15.80
2018,08,08,03,31,15.80
2018,08,08,03,32,15.80
2018,08,08,03,33,15.80
2018,08,08,03,34,15.80
2018,08,08,03,35,15.80
2018,08,08,03,36,15.80
2018,08,08,03,37,15.80
2018,08,08,03,38,15.80
2018,08,08,03,39,15.80
2018,08,08,03,40,15.80
2018,08,08,03,41,15.80
2018,08,08,03,42,15.80
2018,08,08,03,43,15.90
2018,08,08,03,44,15.90
2018,08,08,03,45,15.90
2018,08,08,03,46,15.90
2018,08,08,03,47,15.90
2018,08,08,03,48,15.90
2018,08,08,03,49,15.90
2018,08,08,03,50,15.90
2018,08,08,03,51,15.90
2018,08,08,03,52,16.00
2018,08,08,03,53,16.10
2018,08,08,03,54,16.10
2018,08,08,03,55,16.10
2018,08,08,03,56,16.10
2018,08,08,03,57,16.10
2018,08,08,03,58,16.10
2018,08,08,03,59,16.10
2018,08,08,04,00,16.10
2018,08,08,04,01,16.10
2018,08,08,04,02,16.10
2018,08,08,04,03,16.10
2018,08,08,04,04,16.10
2018,08,08,04,05,16.10
2018,08,08,04,06,16.10
2018,08,08,04,07,16.10
2018,08,08,04,08,16.10
2018,08,08,04,09,16.10
2018,08,08,04,10,16.00
2018,08,08,04,11,15.90
2018,08,08,04,12,15.90
2018,08,08,04,13,15.80
2018,08,08,04,14,15.80
2018,08,08,04,15,15.80
2018,08,08,04,16,15.80
2018,08,08,04,17,15.80
2018,08,08,04,18,15.80
2018,08,08,04,19,15.80
2018,08,08,04,20,15.80
2018,08,08,04,21,15.80
2018,08,08,04,22,15.80
2018,08,08,04,23,15.80
2018,08,08,04,24,15.80
2018,08,08,04,25,15.80
2018,08,08,04,26,15.80
2018,08,08,04,27,15.70
2018,08,08,04,28,15.70
2018,08,08,04,29,15.70
2018,08,08,04,30,15.60
2018,08,08,04,31,15.60
2018,08,08,04,32,15.60
2018,08,08,04,33,15.60
2018,08,08,04,34,15.70
2018,08,08,04,35,15.70
2018,08,08,04,36,15.70
2018,08,08,04,37,15.70
2018,08,08,04,38,15.70
2018,08,08,04,39,15.70
2018,08,08,04,40,15.70
2018,08,08,04,41,15.70
2018,08,08,04,42,15.70
2018,08,08,04,43,15.70
2018,08,08,04,44,15.60
2018,08,08,04,45,15.60
2018,08,08,04,46,15.60
2018,08,08,04,47,15.50
2018,08,08,04,48,15.50
2018,08,08,04,49,15.40
2018,08,08,04,50,15.40
2018,08,08,04,51,15.30
2018,08,08,04,52,15.30
2018,08,08,04,53,15.30
2018,08,08,04,54,15.30
2018,08,08,04,55,15.30
2018,08,08,04,56,15.30
2018,08,08,04,57,15.30
2018,08,08,04,58,15.20
2018,08,08,04,59,15.20
2018,08,08,05,00,15.20
2018,08,08,05,01,15.20
2018,08,08,05,02,15.20
2018,08,08,05,03,15.20
2018,08,08,05,04,15.20
2018,08,08,05,05,15.20
2018,08,08,05,06,15.20
2018,08,08,05,07,15.20
2018,08,08,05,08,15.20
2018,08,08,05,09,15.20
2018,08,08,05,10,15.20
2018,08,08,05,11,15.10
2018,08,08,05,12,15.10
2018,08,08,05,13,15.10
2018,08,08,05,14,15.10
2018,08,08,05,15,15.00
2018,08,08,05,16,15.00
2018,08,08,05,17,15.00
2018,08,08,05,18,15.00
2018,08,08,05,19,14.90
2018,08,08,05,20,14.90
2018,08,08,05,21,14.90
2018,08,08,05,22,14.90
2018,08,08,05,23,14.90
2018,08,08,05,24,14.90
2018,08,08,05,25,14.90
2018,08,08,05,26,14.90
2018,08,08,05,27,14.90
2018,08,08,05,28,14.90
2018,08,08,05,29,14.90
2018,08,08,05,30,14.90
2018,08,08,05,31,14.80
2018,08,08,05,32,14.80
2018,08,08,05,33,14.80
2018,08,08,05,34,14.80
2018,08,08,05,35,14.80
2018,08,08,05,36,14.80
2018,08,08,05,37,14.80
2018,08,08,05,38,14.80
2018,08,08,05,39,14.80
2018,08,08,05,40,14.80
2018,08,08,05,41,14.80
2018,08,08,05,42,14.80
2018,08,08,05,43,14.80
2018,08,08,05,44,14.80
2018,08,08,05,45,14.80
2018,08,08,05,46,14.80
2018,08,08,05,47,14.80
2018,08,08,05,48,14.80
2018,08,08,05,49,14.80
2018,08,08,05,50,14.80
2018,08,08,05,51,14.80
2018,08,08,05,52,14.80
2018,08,08,05,53,14.80
2018,08,08,05,54,14.70
2018,08,08,05,55,14.70
2018,08,08,05,56,14.70
2018,08,08,05,57,14.70
2018,08,08,05,58,14.70
2018,08,08,05,59,14.70
2018,08,08,06,00,14.70
2018,08,08,06,01,14.70
2018,08,08,06,02,14.70
2018,08,08,06,03,14.70
2018,08,08,06,04,14.70
2018,08,08,06,05,14.70
2018,08,08,06,06,14.70
2018,08,08,06,07,14.70
2018,08,08,06,08,14.70
2018,08,08,06,09,14.70
2018,08,08,06,10,14.70
2018,08,08,06,11,14.70
2018,08,08,06,12,14.70
2018,08,08,06,13,14.70
2018,08,08,06,14,14.70
2018,08,08,06,15,14.70
2018,08,08,06,16,14.70
2018,08,08,06,17,14.70
2018,08,08,06,18,14.70
2018,08,08,06,19,14.70
2018,08,08,06,20,14.70
2018,08,08,06,21,14.80
2018,08,08,06,22,14.80
2018,08,08,06,23,14.80
2018,08,08,06,24,14.80
2018,08,08,06,25,14.80
2018,08,08,06,26,14.80
2018,08,08,06,27,14.80
2018,08,08,06,28,14.80
2018,08,08,06,29,14.90
2018,08,08,06,30,14.90
2018,08,08,06,31,14.90
2018,08,08,06,32,14.90
2018,08,08,06,33,15.00
2018,08,08,06,34,15.00
2018,08,08,06,35,15.10
2018,08,08,06,36,15.20
2018,08,08,06,37,15.20
2018,08,08,06,38,15.30
2018,08,08,06,39,15.30
2018,08,08,06,40,15.40
2018,08,08,06,41,15.50
2018,08,08,06,42,15.60
2018,08,08,06,43,15.70
2018,08,08,06,44,15.80
2018,08,08,06,45,15.90
2018,08,08,06,46,16.10
2018,08,08,06,47,16.20
2018,08,08,06,48,16.30
2018,08,08,06,49,16.40
2018,08,08,06,50,16.40
2018,08,08,06,51,16.60
2018,08,08,06,52,16.70
2018,08,08,06,53,16.80
2018,08,08,06,54,16.90
2018,08,08,06,55,16.90
2018,08,08,06,56,17.00
2018,08,08,06,57,17.10
2018,08,08,06,58,17.10
2018,08,08,06,59,17.20
2018,08,08,07,00,17.20
2018,08,08,07,01,17.20
2018,08,08,07,02,17.20
2018,08,08,07,03,17.20
2018,08,08,07,04,17.20
2018,08,08,07,05,17.20
2018,08,08,07,06,17.20
2018,08,08,07,07,17.10
2018,08,08,07,08,17.10
2018,08,08,07,09,17.20
2018,08,08,07,10,17.20
2018,08,08,07,11,17.20
2018,08,08,07,12,17.30
2018,08,08,07,13,17.30
2018,08,08,07,14,17.30
2018,08,08,07,15,17.40
2018,08,08,07,16,17.40
2018,08,08,07,17,17.50
2018,08,08,07,18,17.50
2018,08,08,07,19,17.60
2018,08,08,07,20,17.60
2018,08,08,07,21,17.60
2018,08,08,07,22,17.60
2018,08,08,07,23,17.70
2018,08,08,07,24,17.70
2018,08,08,07,25,17.70
2018,08,08,07,26,17.70
2018,08,08,07,27,17.80
2018,08,08,07,28,17.80
2018,08,08,07,29,17.80
2018,08,08,07,30,17.80
2018,08,08,07,31,17.80
2018,08,08,07,32,17.80
2018,08,08,07,33,17.80
2018,08,08,07,34,17.80
2018,08,08,07,35,17.90
2018,08,08,07,36,17.90
2018,08,08,07,37,17.90
2018,08,08,07,38,18.00
2018,08,08,07,39,18.10
2018,08,08,07,40,18.10
2018,08,08,07,41,18.20
2018,08,08,07,42,18.20
2018,08,08,07,43,18.30
2018,08,08,07,44,18.30
2018,08,08,07,45,18.30
2018,08,08,07,46,18.40
2018,08,08,07,47,18.40
2018,08,08,07,48,18.40
2018,08,08,07,49,18.50
2018,08,08,07,50,18.50
2018,08,08,07,51,18.50
2018,08,08,07,52,18.50
2018,08,08,07,53,18.60
2018,08,08,07,54,18.60
2018,08,08,07,55,18.60
2018,08,08,07,56,18.70
2018,08,08,07,57,18.70
2018,08,08,07,58,18.70
2018,08,08,07,59,18.80
2018,08,08,08,00,18.90
2018,08,08,08,01,18.90
2018,08,08,08,02,18.90
2018,08,08,08,03,19.00
2018,08,08,08,04,19.10
2018,08,08,08,05,19.10
2018,08,08,08,06,19.20
2018,08,08,08,07,19.30
2018,08,08,08,08,19.30
2018,08,08,08,09,19.40
2018,08,08,08,10,19.50
2018,08,08,08,11,19.50
2018,08,08,08,12,19.60
2018,08,08,08,13,19.70
2018,08,08,08,14,19.70
2018,08,08,08,15,19.80
2018,08,08,08,16,19.80
2018,08,08,08,17,19.90
2018,08,08,08,18,19.90
2018,08,08,08,19,20.00
2018,08,08,08,20,20.10
2018,08,08,08,21,20.10
2018,08,08,08,22,20.20
2018,08,08,08,23,20.20
2018,08,08,08,24,20.30
2018,08,08,08,25,20.40
2018,08,08,08,26,20.50
2018,08,08,08,27,20.50
2018,08,08,08,28,20.60
2018,08,08,08,29,20.60
2018,08,08,08,30,20.70
2018,08,08,08,31,20.80
2018,08,08,08,32,20.90
2018,08,08,08,33,21.00
2018,08,08,08,34,21.10
2018,08,08,08,35,21.20
2018,08,08,08,36,21.30
2018,08,08,08,37,21.40
2018,08,08,08,38,21.50
2018,08,08,08,39,21.60
2018,08,08,08,40,21.60
2018,08,08,08,41,21.60
2018,08,08,08,42,21.70
2018,08,08,08,43,21.80
2018,08,08,08,44,21.90
2018,08,08,08,45,22.00
2018,08,08,08,46,22.00
2018,08,08,08,47,22.00
2018,08,08,08,48,22.10
2018,08,08,08,49,22.10
2018,08,08,08,50,22.10
2018,08,08,08,51,22.20
2018,08,08,08,52,22.20
2018,08,08,08,53,22.30
2018,08,08,08,54,22.40
2018,08,08,08,55,22.60
2018,08,08,08,56,22.70
2018,08,08,08,57,22.80
2018,08,08,08,58,22.80
2018,08,08,08,59,22.90
2018,08,08,09,00,23.00
2018,08,08,09,01,23.10
2018,08,08,09,02,23.10
2018,08,08,09,03,23.20
2018,08,08,09,04,23.30
2018,08,08,09,05,23.30
2018,08,08,09,06,23.30
2018,08,08,09,07,23.30
2018,08,08,09,08,23.40
2018,08,08,09,09,23.50
2018,08,08,09,10,23.60
2018,08,08,09,11,23.60
2018,08,08,09,12,23.70
2018,08,08,09,13,23.70
2018,08,08,09,14,23.70
2018,08,08,09,15,23.70
2018,08,08,09,16,23.70
2018,08,08,09,17,23.70
2018,08,08,09,18,23.80
2018,08,08,09,19,23.80
2018,08,08,09,20,23.80
2018,08,08,09,21,23.90
2018,08,08,09,22,24.00
2018,08,08,09,23,24.10
2018,08,08,09,24,24.10
2018,08,08,09,25,24.10
2018,08,08,09,26,24.10
2018,08,08,09,27,24.10
2018,08,08,09,28,24.10
2018,08,08,09,29,24.10
2018,08,08,09,30,24.10
2018,08,08,09,31,24.10
2018,08,08,09,32,24.10
2018,08,08,09,33,24.10
2018,08,08,09,34,24.10
2018,08,08,09,35,24.10
2018,08,08,09,36,24.10
2018,08,08,09,37,24.10
2018,08,08,09,38,24.10
2018,08,08,09,39,24.10
2018,08,08,09,40,24.10
2018,08,08,09,41,24.10
2018,08,08,09,42,24.10
2018,08,08,09,43,24.10
2018,08,08,09,44,24.10
2018,08,08,09,45,24.10
2018,08,08,09,46,24.20
2018,08,08,09,47,24.20
2018,08,08,09,48,24.20
2018,08,08,09,49,24.30
2018,08,08,09,50,24.30
2018,08,08,09,51,24.30
2018,08,08,09,52,24.20
2018,08,08,09,53,24.20
2018,08,08,09,54,24.20
2018,08,08,09,55,24.20
2018,08,08,09,56,24.30
2018,08,08,09,57,24.30
2018,08,08,09,58,24.30
2018,08,08,09,59,24.40
2018,08,08,10,00,24.40
2018,08,08,10,01,24.40
2018,08,08,10,02,24.40
2018,08,08,10,03,24.40
2018,08,08,10,04,24.40
2018,08,08,10,05,24.50
2018,08,08,10,06,24.50
2018,08,08,10,07,24.60
2018,08,08,10,08,24.70
2018,08,08,10,09,24.70
2018,08,08,10,10,24.70
2018,08,08,10,11,24.70
2018,08,08,10,12,24.70
2018,08,08,10,13,24.60
2018,08,08,10,14,24.60
2018,08,08,10,15,24.60
2018,08,08,10,16,24.60
2018,08,08,10,17,24.70
2018,08,08,10,18,24.70
2018,08,08,10,19,24.80
2018,08,08,10,20,24.90
2018,08,08,10,21,24.80
2018,08,08,10,22,24.80
2018,08,08,10,23,24.80
2018,08,08,10,24,24.80
2018,08,08,10,25,24.80
2018,08,08,10,26,24.90
2018,08,08,10,27,24.90
2018,08,08,10,28,24.90
2018,08,08,10,29,24.80
2018,08,08,10,30,24.80
2018,08,08,10,31,24.70
2018,08,08,10,32,24.70
2018,08,08,10,33,24.70
2018,08,08,10,34,24.60
2018,08,08,10,35,24.60
2018,08,08,10,36,24.60
2018,08,08,10,37,24.60
2018,08,08,10,38,24.60
2018,08,08,10,39,24.60
2018,08,08,10,40,24.60
2018,08,08,10,41,24.70
2018,08,08,10,42,24.80
2018,08,08,10,43,24.80
2018,08,08,10,44,24.80
2018,08,08,10,45,24.80
2018,08,08,10,46,24.90
2018,08,08,10,47,24.90
2018,08,08,10,48,24.90
2018,08,08,10,49,24.90
2018,08,08,10,50,24.80
2018,08,08,10,51,24.90
2018,08,08,10,52,24.90
2018,08,08,10,53,25.00
2018,08,08,10,54,25.00
2018,08,08,10,55,25.00
2018,08,08,10,56,25.00
2018,08,08,10,57,25.10
2018,08,08,10,58,25.10
2018,08,08,10,59,25.10
2018,08,08,11,00,25.20
2018,08,08,11,01,25.20
2018,08,08,11,02,25.20
2018,08,08,11,03,25.10
2018,08,08,11,04,25.00
2018,08,08,11,05,25.00
2018,08,08,11,06,24.90
2018,08,08,11,07,24.90
2018,08,08,11,08,24.90
2018,08,08,11,09,24.90
2018,08,08,11,10,24.80
2018,08,08,11,11,24.80
2018,08,08,11,12,24.80
2018,08,08,11,13,24.70
2018,08,08,11,14,24.80
2018,08,08,11,15,24.80
2018,08,08,11,16,24.90
2018,08,08,11,17,24.90
2018,08,08,11,18,24.90
2018,08,08,11,19,25.00
2018,08,08,11,20,25.00
2018,08,08,11,21,25.00
2018,08,08,11,22,25.10
2018,08,08,11,23,25.10
2018,08,08,11,24,25.20
2018,08,08,11,25,25.20
2018,08,08,11,26,25.30
2018,08,08,11,27,25.40
2018,08,08,11,28,25.40
2018,08,08,11,29,25.40
2018,08,08,11,30,25.50
2018,08,08,11,31,25.50
2018,08,08,11,32,25.50
2018,08,08,11,33,25.50
2018,08,08,11,34,25.60
2018,08,08,11,35,25.60
2018,08,08,11,36,25.60
2018,08,08,11,37,25.60
2018,08,08,11,38,25.60
2018,08,08,11,39,25.50
2018,08,08,11,40,25.60
2018,08,08,11,41,25.60
2018,08,08,11,42,25.70
2018,08,08,11,43,25.80
2018,08,08,11,44,25.80
2018,08,08,11,45,25.80
2018,08,08,11,46,25.90
2018,08,08,11,47,26.00
2018,08,08,11,48,26.10
2018,08,08,11,49,26.20
2018,08,08,11,50,26.20
2018,08,08,11,51,26.20
2018,08,08,11,52,26.10
2018,08,08,11,53,26.10
2018,08,08,11,54,26.00
2018,08,08,11,55,26.00
2018,08,08,11,56,26.10
2018,08,08,11,57,26.10
2018,08,08,11,58,26.10
2018,08,08,11,59,26.10
2018,08,08,12,00,26.00
2018,08,08,12,01,26.00
2018,08,08,12,02,26.10
2018,08,08,12,03,26.10
2018,08,08,12,04,26.10
2018,08,08,12,05,26.20
2018,08,08,12,06,26.20
2018,08,08,12,07,26.30
2018,08,08,12,08,26.30
2018,08,08,12,09,26.30
2018,08,08,12,10,26.30
2018,08,08,12,11,26.40
2018,08,08,12,12,26.60
2018,08,08,12,13,26.70
2018,08,08,12,14,26.80
2018,08,08,12,15,26.90
2018,08,08,12,16,27.10
2018,08,08,12,17,27.20
2018,08,08,12,18,27.30
2018,08,08,12,19,27.30
2018,08,08,12,20,27.20
2018,08,08,12,21,27.00
2018,08,08,12,22,26.70
2018,08,08,12,23,26.30
2018,08,08,12,24,26.10
2018,08,08,12,25,26.00
2018,08,08,12,26,26.00
2018,08,08,12,27,26.00
2018,08,08,12,28,25.90
2018,08,08,12,29,25.90
2018,08,08,12,30,25.80
2018,08,08,12,31,25.70
2018,08,08,12,32,25.60
2018,08,08,12,33,25.60
2018,08,08,12,34,25.60
2018,08,08,12,35,25.60
2018,08,08,12,36,25.50
2018,08,08,12,37,25.40
2018,08,08,12,38,25.40
2018,08,08,12,39,25.40
2018,08,08,12,40,25.40
2018,08,08,12,41,25.60
2018,08,08,12,42,25.70
2018,08,08,12,43,25.80
2018,08,08,12,44,25.90
2018,08,08,12,45,25.90
2018,08,08,12,46,26.00
2018,08,08,12,47,26.00
2018,08,08,12,48,26.00
2018,08,08,12,49,26.10
2018,08,08,12,50,26.30
2018,08,08,12,51,26.30
2018,08,08,12,52,26.40
2018,08,08,12,53,26.40
2018,08,08,12,54,26.40
2018,08,08,12,55,26.50
2018,08,08,12,56,26.60
2018,08,08,12,57,26.70
2018,08,08,12,58,26.90
2018,08,08,12,59,27.00
2018,08,08,13,00,27.10
2018,08,08,13,01,27.20
2018,08,08,13,02,27.30
2018,08,08,13,03,27.30
2018,08,08,13,04,27.30
2018,08,08,13,05,27.30
2018,08,08,13,06,27.30
2018,08,08,13,07,27.50
2018,08,08,13,08,27.60
2018,08,08,13,09,27.80
2018,08,08,13,10,28.00
2018,08,08,13,11,28.10
2018,08,08,13,12,28.10
2018,08,08,13,13,28.00
2018,08,08,13,14,28.00
2018,08,08,13,15,27.90
2018,08,08,13,16,27.80
2018,08,08,13,17,27.70
2018,08,08,13,18,27.50
2018,08,08,13,19,27.40
2018,08,08,13,20,27.40
2018,08,08,13,21,27.50
2018,08,08,13,22,27.60
2018,08,08,13,23,27.70
2018,08,08,13,24,27.60
2018,08,08,13,25,27.50
2018,08,08,13,26,27.30
2018,08,08,13,27,27.30
2018,08,08,13,28,27.30
2018,08,08,13,29,27.30
2018,08,08,13,30,27.50
2018,08,08,13,31,27.60
2018,08,08,13,32,27.60
2018,08,08,13,33,27.50
2018,08,08,13,34,27.40
2018,08,08,13,35,27.30
2018,08,08,13,36,27.30
2018,08,08,13,37,27.30
2018,08,08,13,38,27.40
2018,08,08,13,39,27.50
2018,08,08,13,40,27.70
2018,08,08,13,41,27.80
2018,08,08,13,42,28.00
2018,08,08,13,43,28.20
2018,08,08,13,44,28.30
2018,08,08,13,45,28.20
2018,08,08,13,46,28.30
2018,08,08,13,47,28.40
2018,08,08,13,48,28.40
2018,08,08,13,49,28.50
2018,08,08,13,50,28.60
2018,08,08,13,51,28.60
2018,08,08,13,52,28.70
2018,08,08,13,53,28.80
2018,08,08,13,54,28.70
2018,08,08,13,55,28.60
2018,08,08,13,56,28.60
2018,08,08,13,57,28.60
2018,08,08,13,58,28.70
2018,08,08,13,59,28.70
2018,08,08,14,00,28.70
2018,08,08,14,01,28.80
2018,08,08,14,02,28.80
2018,08,08,14,03,28.90
2018,08,08,14,04,28.90
2018,08,08,14,05,28.90
2018,08,08,14,06,29.00
2018,08,08,14,07,29.00
2018,08,08,14,08,28.90
2018,08,08,14,09,28.90
2018,08,08,14,10,28.90
2018,08,08,14,11,29.00
2018,08,08,14,12,29.10
2018,08,08,14,13,29.20
2018,08,08,14,14,29.30
2018,08,08,14,15,29.30
2018,08,08,14,16,29.30
2018,08,08,14,17,29.40
2018,08,08,14,18,29.40
2018,08,08,14,19,29.40
2018,08,08,14,20,29.50
2018,08,08,14,21,29.50
2018,08,08,14,22,29.60
2018,08,08,14,23,29.60
2018,08,08,14,24,29.60
2018,08,08,14,25,29.70
2018,08,08,14,26,29.70
2018,08,08,14,27,29.70
2018,08,08,14,28,29.70
2018,08,08,14,29,29.80
2018,08,08,14,30,29.80
2018,08,08,14,31,29.90
2018,08,08,14,32,29.90
2018,08,08,14,33,29.90
2018,08,08,14,34,29.90
2018,08,08,14,35,29.90
2018,08,08,14,36,30.10
2018,08,08,14,37,30.10
2018,08,08,14,38,30.10
2018,08,08,14,39,30.10
2018,08,08,14,40,30.20
2018,08,08,14,41,30.20
2018,08,08,14,42,30.20
2018,08,08,14,43,30.20
2018,08,08,14,44,30.20
2018,08,08,14,45,30.20
2018,08,08,14,46,30.20
2018,08,08,14,47,30.10
2018,08,08,14,48,30.10
2018,08,08,14,49,30.10
2018,08,08,14,50,30.10
2018,08,08,14,51,30.10
2018,08,08,14,52,30.10
2018,08,08,14,53,30.20
2018,08,08,14,54,30.20
2018,08,08,14,55,30.30
2018,08,08,14,56,30.40
2018,08,08,14,57,30.60
2018,08,08,14,58,30.70
2018,08,08,14,59,30.70
2018,08,08,15,00,30.80
2018,08,08,15,01,30.70
2018,08,08,15,02,30.80
2018,08,08,15,03,30.80
2018,08,08,15,04,30.80
2018,08,08,15,05,30.80
2018,08,08,15,06,30.80
2018,08,08,15,07,30.80
2018,08,08,15,08,30.90
2018,08,08,15,09,30.90
2018,08,08,15,10,30.90
2018,08,08,15,11,30.90
2018,08,08,15,12,30.90
2018,08,08,15,13,30.90
2018,08,08,15,14,30.90
2018,08,08,15,15,30.90
2018,08,08,15,16,30.90
2018,08,08,15,17,31.00
2018,08,08,15,18,31.10
2018,08,08,15,19,31.00
2018,08,08,15,20,31.00
2018,08,08,15,21,30.80
2018,08,08,15,22,30.70
2018,08,08,15,23,30.40
2018,08,08,15,24,30.30
2018,08,08,15,25,30.10
2018,08,08,15,26,30.10
2018,08,08,15,27,30.10
2018,08,08,15,28,29.90
2018,08,08,15,29,29.80
2018,08,08,15,30,29.70
2018,08,08,15,31,29.60
2018,08,08,15,32,29.60
2018,08,08,15,33,29.60
2018,08,08,15,34,29.70
2018,08,08,15,35,29.90
2018,08,08,15,36,30.00
2018,08,08,15,37,30.10
2018,08,08,15,38,30.10
2018,08,08,15,39,30.10
2018,08,08,15,40,30.20
2018,08,08,15,41,30.20
2018,08,08,15,42,30.20
2018,08,08,15,43,30.30
2018,08,08,15,44,30.40
2018,08,08,15,45,30.60
2018,08,08,15,46,30.70
2018,08,08,15,47,30.70
2018,08,08,15,48,30.80
2018,08,08,15,49,31.00
2018,08,08,15,50,31.10
2018,08,08,15,51,31.10
2018,08,08,15,52,31.10
2018,08,08,15,53,31.10
2018,08,08,15,54,31.10
2018,08,08,15,55,31.20
2018,08,08,15,56,31.20
2018,08,08,15,57,31.30
2018,08,08,15,58,31.50
2018,08,08,15,59,31.60
2018,08,08,16,00,31.80
2018,08,08,16,01,31.90
2018,08,08,16,02,32.00
2018,08,08,16,03,32.10
2018,08,08,16,04,32.20
2018,08,08,16,05,32.30
2018,08,08,16,06,32.40
2018,08,08,16,07,32.60
2018,08,08,16,08,32.60
2018,08,08,16,09,32.40
2018,08,08,16,10,32.20
2018,08,08,16,11,32.10
2018,08,08,16,12,32.10
2018,08,08,16,13,31.90
2018,08,08,16,14,31.70
2018,08,08,16,15,31.50
2018,08,08,16,16,31.20
2018,08,08,16,17,31.00
2018,08,08,16,18,30.90
2018,08,08,16,19,30.70
2018,08,08,16,20,30.60
2018,08,08,16,21,30.30
2018,08,08,16,22,30.20
2018,08,08,16,23,30.30
2018,08,08,16,24,30.20
2018,08,08,16,25,30.20
2018,08,08,16,26,30.20
2018,08,08,16,27,30.10
2018,08,08,16,28,30.10
2018,08,08,16,29,30.00
2018,08,08,16,30,29.80
2018,08,08,16,31,29.80
2018,08,08,16,32,29.80
2018,08,08,16,33,29.80
2018,08,08,16,34,29.70
2018,08,08,16,35,29.80
2018,08,08,16,36,29.90
2018,08,08,16,37,30.00
2018,08,08,16,38,30.10
2018,08,08,16,39,30.20
2018,08,08,16,40,30.30
2018,08,08,16,41,30.40
2018,08,08,16,42,30.50
2018,08,08,16,43,30.60
2018,08,08,16,44,30.70
2018,08,08,16,45,30.80
2018,08,08,16,46,30.80
2018,08,08,16,47,30.80
2018,08,08,16,48,30.80
2018,08,08,16,49,30.80
2018,08,08,16,50,30.80
2018,08,08,16,51,30.80
2018,08,08,16,52,30.90
2018,08,08,16,53,31.00
2018,08,08,16,54,31.00
2018,08,08,16,55,31.00
2018,08,08,16,56,31.10
2018,08,08,16,57,31.10
2018,08,08,16,58,31.20
2018,08,08,16,59,31.30
2018,08,08,17,00,31.40
2018,08,08,17,01,31.50
2018,08,08,17,02,31.60
2018,08,08,17,03,31.60
2018,08,08,17,04,31.60
2018,08,08,17,05,31.70
2018,08,08,17,06,31.70
2018,08,08,17,07,31.70
2018,08,08,17,08,31.80
2018,08,08,17,09,31.90
2018,08,08,17,10,31.90
2018,08,08,17,11,32.00
2018,08,08,17,12,32.10
2018,08,08,17,13,32.10
2018,08,08,17,14,32.10
2018,08,08,17,15,32.10
2018,08,08,17,16,32.10
2018,08,08,17,17,32.20
2018,08,08,17,18,32.20
2018,08,08,17,19,32.20